COSMOS 252 DEB, 3785

Orbit data source: Space-Track

COSMOS 252 DEB, 3785 is space debris in LEO originally from a launch on Fri, 01 Nov 1968 UTC launched from the Tyuratam Missile And Space Complex (TTMTR). Debris objects in space refer to the collection of defunct objects orbiting the Earth. Examples of debris include non-operational satellites, rocket bodies, and fragments generated from explosions, collisions, or faulty payload assembly.

Loading next visibility...
Identifier
3785, 1968-097AX
Orbit
LEO
Country
Flag of CISCIS
Related business
Manufacturer
Unknown
Mission
Spacecraft
Bus & Motor
Unknown
Mass
Unknown
Launch date (UTC)
1968-11-01 (57 years ago)
Launch vehicle
Unknown
Launch site
Tyuratam Missile And Space Complex (TTMTR)
Object type
Payload
Rocket body
Debris
Shape & HBR
Unknown shape, 0.1 m
Radar Cross Section
Small (<0.1 m²)

Expand to show TLE details & history
Last TLE update: 23 hours ago

TLE from 23 hours ago
0 COSMOS 252 DEB
1 03785U 68097AX  25287.66885678  .00001350  00000-0  17710-2 0  9998
2 03785  62.2561 163.8872 0777424  19.6910 343.2402 12.78617670524946
Epoch: 2025-10-14T16:03Z
TLE epoch observation values (Epoch: 2025-10-14T16:03:09.225Z)
Latitude
-0.00004°
Longitude
-100.35523°
Altitude
777.901 km
Speed
7.736 km/s
True Right ascension
10h 55m 32s
True Declination
0° 00' 00"
Sunlit
Object was in daylight at epoch
Visualization orbit readout
Latitude
Unknown
Longitude
Unknown
Altitude
Unknown
Speed
Unknown
Apparent Right ascension
Unknown
Apparent Declination
Unknown
Sunlit
N/A
Visualization observer readout
Local Sidereal Time
09:29:47
Azimuth
Unknown
Elevation
Unknown
Doppler factor
Unknown
Orbital elements
Apogee altitude
1,946.527 km
Perigee altitude
745.536 km
Semi-major axis
7,724.168 km
Eccentricity
0.07774
Inclination
62.2561°
RAAN
163.8872°
Arg. of periapsis
19.691°
True anomaly
340.41013°
Mean anomaly
343.2402°
Eccentric anomaly
341.85287°
Mean motion
3.19717 °/min
Orbital period
112.6 mins
BSTAR
0.001771
Loading maneuver chart data...
Computing Atmospheric mass density...

Documentation

Showing up to 5 results
|